CAPE
0 0 0 0 0 0 0 0 0 0 0 0 0 1072 1067 794 559 939 2294 2033 2076 1712 1894 1670 1790 1691 1888 1963 2008 2018 1964 1944 1829 1677 1409 1354 1430 1624 1943 2018 1623 1308 652 430 187 3 0 0 0
0 0 0 0 0 0 0 0 0 0 0 0 0 13 872 976 1316 1840 1902 2421 2122 1713 1851 1417 1790 1691 1575 1662 1896 1871 1883 1893 1872 1737 1592 1502 1635 1801 1930 1910 1756 1376 847 355 138 0 0 6 32
0 0 0 0 0 0 0 0 0 0 0 0 0 0 1 23 26 1187 2553 2350 2387 1972 1641 1667 1904 1667 1549 1409 1566 1812 1853 1778 1783 1741 1666 1644 1647 1755 1796 1825 1851 1481 904 359 101 0 18 0 18
0 0 0 0 0 0 0 0 0 0 0 0 0 0 0 0 145 2360 2498 2163 2323 2275 1579 1906 1955 1724 1573 1223 1392 1630 1673 1746 1721 1745 1645 1629 1629 1582 1569 1692 1817 1629 873 372 192 97 41 0 0
0 0 0 0 0 0 0 0 0 0 0 0 0 0 0 0 117 2298 2409 2116 1779 1692 1461 1800 2103 1935 1637 1208 1217 1469 1656 1713 1655 1606 1509 1533 1508 1429 1452 1550 1548 1324 1077 686 334 170 42 0 0
0 0 0 0 0 0 0 0 0 0 0 0 0 0 0 0 0 0 2129 2110 1655 1610 1903 2060 2060 2106 1807 1588 1441 1573 1679 1679 1661 1563 1483 1464 1431 1353 1370 1399 1356 1221 1074 901 512 156 22 0 0
0 0 0 0 0 0 0 0 0 0 0 0 0 0 0 0 0 0 2008 2008 1957 1694 1852 2139 1966 1948 1925 1788 1625 1546 1588 1594 1650 1622 1508 1541 1449 1306 1268 1245 1206 1114 1044 887 673 186 13 0 0
0 0 0 0 0 0 0 0 0 0 0 0 0 0 0 0 17 894 1938 1930 2004 2014 1754 1892 2106 1774 1843 1512 1629 1629 1505 1594 1640 1697 1672 1647 1555 1500 1394 1144 1097 1109 1012 858 748 310 57 5 0
0 0 0 0 0 0 0 0 0 0 0 0 0 0 0 0 0 457 490 1413 2054 2061 2168 2003 1910 1806 1751 1653 1632 1724 1430 1340 1502 1502 1673 1403 604 749 743 700 983 1184 1095 1011 858 438 161 54 28
0 0 0 0 0 0 0 0 0 0 0 0 0 0 0 0 0 0 0 0 9 425 1792 2286 2293 2172 1935 1687 1718 1734 1457 1142 643 554 689 779 510 687 480 669 1130 1107 1238 1188 1009 692 358 109 0
0 0 0 0 0 0 0 0 0 0 0 0 0 0 0 0 0 0 0 0 0 0 314 1139 2371 2633 2306 2110 1903 1773 1615 1444 1426 1130 1010 770 562 675 621 411 624 640 821 288 271 216 102 0 0
0 0 0 0 0 0 0 0 0 0 0 0 0 0 0 0 0 0 0 0 0 0 0 71 1607 2363 2650 2353 2018 2020 1673 1367 1333 1372 1185 985 843 570 481 435 354 589 391 276 234 82 87 61 0
0 0 0 0 0 0 0 0 0 0 0 0 0 0 0 0 0 0 0 0 0 0 0 0 0 1487 2258 1914 2059 2106 1852 1378 1260 1222 1182 1071 982 613 477 467 445 352 326 270 136 87 117 42 1
0 0 0 0 0 0 0 0 0 0 0 0 0 0 0 0 0 0 0 0 0 0 0 0 0 0 1339 1869 2083 1979 1943 1726 1621 1396 1307 1166 1197 967 556 533 483 415 370 263 177 74 42 34 8
0 0 0 0 0 0 0 0 0 0 0 0 0 0 0 0 0 0 0 0 0 0 0 0 0 0 0 705 1522 1677 1811 1820 1806 1631 1585 1377 1256 1230 817 610 502 397 410 363 264 171 113 69 50
0 0 0 0 0 0 0 0 0 0 0 0 0 0 0 0 0 0 0 0 0 0 0 0 0 0 0 0 619 1283 1402 1779 1933 1917 1752 1610 1378 1147 813 848 558 339 409 323 246 177 73 9 45
0 0 0 0 0 0 0 0 0 0 0 0 0 0 0 0 0 0 0 0 0 0 0 0 0 0 0 0 0 317 1149 1508 1565 1908 1844 1719 1465 1041 752 1135 812 545 255 269 246 239 182 109 377
0 0 0 0 0 0 0 0 0 0 0 0 0 0 0 0 0 0 0 0 0 0 0 0 0 0 0 0 0 102 564 1025 1322 1815 1694 1871 1509 1182 1183 1219 1079 865 465 227 329 420 353 348 460
0 0 0 0 0 0 0 0 0 0 0 0 0 0 0 0 0 0 0 0 0 0 0 0 0 0 0 0 0 0 167 411 1021 1158 1290 1444 1656 1740 1415 1391 1299 1110 760 546 310 533 591 541 614
0 0 0 0 0 0 0 0 0 0 0 0 0 0 0 0 0 0 0 0 0 0 0 0 0 0 0 0 0 0 0 0 202 1078 1447 1506 1569 1782 1773 1698 1527 1365 987 807 581 424 461 574 783
0 0 0 0 0 0 0 0 0 0 0 0 0 0 0 0 0 0 0 0 0 0 0 0 0 0 0 0 0 0 0 0 0 57 315 1447 1602 1790 1705 1907 1700 1561 1355 1039 920 733 683 498 779
0 0 0 0 0 0 0 0 0 0 0 0 0 0 0 0 0 0 0 0 0 0 0 0 0 1 0 1 0 2 2 0 0 2 38 467 1224 1597 1617 1790 1840 1856 1537 1523 1059 488 683 1203 1014
0 0 0 0 0 0 0 0 0 0 25 0 0 0 0 0 0 0 0 0 0 0 0 0 0 3 6 9 9 4 4 0 0 0 21 297 884 1264 1473 1727 1840 1843 1705 1515 1411 912 560 1170 881
0 0 0 0 0 0 0 0 0 1 17 2 0 0 0 0 0 0 0 0 0 0 0 0 2 5 9 17 23 12 2 11 8 1 0 2 66 527 1383 1624 1856 1998 2007 1603 1413 1325 1041 789 791
0 0 0 0 0 0 0 0 0 0 8 0 0 0 0 0 0 0 0 0 0 0 0 0 4 7 12 11 17 23 18 5 11 12 0 0 15 218 1207 1681 1913 1849 2049 1903 1474 1275 624 543 342
0 0 209 14 2 5 0 0 69 26 17 0 0 0 0 0 0 0 0 0 0 0 0 2 8 8 8 8 6 10 19 4 11 8 4 1 0 54 874 1346 1776 1895 1764 1820 1552 1432 1599 451 309
0 0 0 11 0 2 0 0 0 0 4 0 0 0 0 0 0 0 0 0 0 0 0 3 4 4 9 10 9 19 10 16 2 10 19 7 4 11 210 1005 1419 1825 1692 1687 1660 1550 1247 886 94
0 0 2 9 36 3 0 0 4 0 0 0 0 0 0 0 0 0 0 0 0 0 3 6 4 5 6 8 7 13 6 25 25 4 8 12 5 4 165 541 1339 1528 1521 1595 1655 1473 868 112 1
0 0 0 3 8 58 34 1 0 20 4 0 0 0 0 0 0 2 0 0 0 0 2 6 7 4 9 11 16 12 13 10 17 4 4 19 11 6 212 496 811 1283 1433 1264 955 456 56 2 1
0 0 3 41 25 33 25 14 0 53 3 0 0 0 0 0 0 0 0 0 0 0 4 2 8 10 4 9 9 14 14 15 13 12 3 11 30 33 33 505 790 1253 912 492 374 12 3 1 1
CIN
0 0 0 0 0 0 0 0 0 0 0 0 0 -99 -55 -99 -79 -47 -148 -197 -180 -229 -186 -203 -185 -178 -116 -95 -90 -111 -123 -122 -131 -144 -181 -185 -162 -120 -75 -62 -87 -103 -190 -214 -263 -36 0 0 0
0 0 0 0 0 0 0 0 0 0 0 0 0 -114 -76 -87 -113 -79 -104 -157 -189 -227 -194 -253 -182 -172 -162 -127 -100 -111 -116 -120 -126 -140 -148 -157 -135 -108 -80 -73 -83 -109 -175 -248 -298 0 0 -61 -339
0 0 0 0 0 0 0 0 0 0 0 0 0 0 -34 -58 -116 -136 -131 -162 -157 -179 -205 -208 -155 -172 -159 -166 -127 -103 -95 -107 -118 -133 -133 -131 -125 -112 -96 -82 -79 -109 -162 -249 -309 0 -259 0 -242
0 0 0 0 0 0 0 0 0 0 0 0 0 0 0 0 -368 -102 -128 -176 -158 -149 -212 -168 -153 -168 -159 -193 -154 -123 -123 -107 -103 -106 -119 -118 -111 -116 -112 -84 -70 -85 -165 -238 -282 -317 -373 0 0
0 0 0 0 0 0 0 0 0 0 0 0 0 0 0 0 -29 -106 -107 -157 -163 -181 -203 -164 -118 -130 -163 -207 -187 -148 -124 -118 -124 -115 -115 -111 -108 -114 -106 -93 -77 -96 -114 -164 -229 -295 -395 0 0
0 0 0 0 0 0 0 0 0 0 0 0 0 0 0 0 0 0 -105 -121 -164 -183 -162 -132 -120 -93 -114 -129 -150 -137 -128 -132 -125 -134 -127 -107 -103 -105 -100 -90 -81 -97 -96 -116 -169 -278 -389 0 0
0 0 0 0 0 0 0 0 0 0 0 0 0 0 0 0 0 0 -122 -123 -129 -151 -143 -114 -114 -102 -86 -82 -97 -115 -112 -108 -109 -120 -128 -116 -106 -99 -95 -92 -83 -98 -102 -110 -127 -239 -418 0 0
0 0 0 0 0 0 0 0 0 0 0 0 0 0 0 0 -39 -132 -90 -107 -116 -116 -120 -115 -86 -89 -71 -82 -84 -83 -96 -83 -80 -73 -77 -80 -82 -85 -87 -109 -107 -98 -102 -111 -105 -175 -329 -282 0
0 0 0 0 0 0 0 0 0 0 0 0 0 0 0 0 0 -102 -95 -53 -65 -90 -101 -103 -104 -102 -88 -83 -69 -57 -77 -91 -72 -65 -47 -67 -120 -122 -130 -148 -125 -93 -86 -87 -90 -144 -244 -346 -405
0 0 0 0 0 0 0 0 0 0 0 0 0 0 0 0 0 0 0 0 -82 -51 -48 -65 -84 -89 -94 -107 -96 -78 -75 -86 -154 -153 -130 -108 -132 -112 -128 -126 -104 -99 -76 -69 -73 -99 -172 -301 0
0 0 0 0 0 0 0 0 0 0 0 0 0 0 0 0 0 0 0 0 0 0 -113 -61 -75 -72 -80 -76 -80 -74 -67 -69 -61 -81 -84 -105 -120 -114 -118 -128 -111 -132 -120 -157 -179 -168 -210 0 0
0 0 0 0 0 0 0 0 0 0 0 0 0 0 0 0 0 0 0 0 0 0 0 -223 -87 -47 -36 -38 -69 -58 -73 -96 -91 -68 -80 -82 -88 -138 -137 -126 -140 -117 -131 -165 -168 -199 -231 -271 0
0 0 0 0 0 0 0 0 0 0 0 0 0 0 0 0 0 0 0 0 0 0 0 0 0 -91 -37 -66 -55 -57 -67 -98 -104 -109 -101 -100 -81 -137 -143 -132 -128 -138 -137 -147 -177 -197 -202 -252 -41
0 0 0 0 0 0 0 0 0 0 0 0 0 0 0 0 0 0 0 0 0 0 0 0 0 0 -107 -61 -37 -34 -42 -67 -72 -78 -88 -96 -76 -97 -140 -123 -118 -127 -133 -136 -148 -181 -207 -235 -183
0 0 0 0 0 0 0 0 0 0 0 0 0 0 0 0 0 0 0 0 0 0 0 0 0 0 0 -190 -79 -54 -36 -25 -28 -52 -59 -71 -79 -84 -106 -119 -122 -127 -122 -125 -134 -146 -188 -224 -230
0 0 0 0 0 0 0 0 0 0 0 0 0 0 0 0 0 0 0 0 0 0 0 0 0 0 0 0 -212 -97 -82 -34 -22 -22 -24 -47 -53 -79 -100 -67 -137 -174 -127 -114 -100 -128 -180 -262 -202
0 0 0 0 0 0 0 0 0 0 0 0 0 0 0 0 0 0 0 0 0 0 0 0 0 0 0 0 0 -261 -117 -90 -63 -23 -24 -35 -44 -86 -127 -40 -71 -122 -190 -112 -99 -98 -137 -155 -76
0 0 0 0 0 0 0 0 0 0 0 0 0 0 0 0 0 0 0 0 0 0 0 0 0 0 0 0 0 -308 -196 -127 -96 -52 -49 -25 -44 -66 -74 -37 -56 -60 -86 -163 -97 -82 -73 -76 -43
0 0 0 0 0 0 0 0 0 0 0 0 0 0 0 0 0 0 0 0 0 0 0 0 0 0 0 0 0 -1 -225 -159 -98 -99 -91 -68 -44 -12 -15 -34 -39 -41 -63 -92 -138 -64 -46 -37 -28
0 0 0 0 0 0 0 0 0 0 0 0 0 0 0 0 0 0 0 0 0 0 0 0 0 0 0 0 0 0 0 0 -154 -76 -62 -72 -54 -36 -19 -13 -22 -38 -39 -54 -73 -88 -37 -38 -9
0 0 0 0 0 0 0 0 0 0 0 0 0 0 0 0 0 0 0 0 0 0 0 0 0 0 0 0 0 0 0 0 0 -343 -208 -53 -46 -29 -22 -6 -8 -23 -34 -31 -42 -31 -37 -12 -5
0 0 0 0 0 0 0 0 0 0 0 0 0 0 0 0 0 0 0 0 0 0 0 0 0 0 0 0 0 0 0 0 0 -87 -341 -105 -47 -34 -30 -17 -7 -2 -18 -19 -36 -84 -10 -1 0
0 0 0 0 0 0 0 0 0 0 -34 0 0 0 0 0 0 0 0 0 0 0 0 0 0 0 0 0 0 0 0 0 0 0 -473 -157 -38 -33 -29 -25 -13 -6 -4 -22 -10 -23 -65 -1 -3
0 0 0 0 0 0 0 0 0 -4 -47 -28 0 0 0 0 0 0 0 0 0 0 0 0 0 0 0 0 0 0 -1 0 0 0 0 -99 -348 -87 -29 -16 -8 -4 0 -15 -18 -18 -11 -37 -23
0 0 0 0 0 0 0 0 0 0 -32 0 0 0 0 0 0 0 0 0 0 0 0 0 0 0 0 0 0 0 0 0 0 0 0 0 -508 -199 -25 -18 -10 -14 -12 -13 -17 -13 -66 -71 -65
0 0 -1 0 0 -27 0 0 -15 -74 -68 0 0 0 0 0 0 0 0 0 0 0 0 0 0 0 0 0 0 0 0 0 0 0 0 0 -267 -372 -11 -10 -6 -5 -18 -15 -9 -1 -8 -72 -64
0 0 0 0 0 -2 0 0 0 0 -15 0 0 0 0 0 0 0 0 0 0 0 0 0 0 0 0 0 0 0 0 0 -1 0 0 0 0 -304 -132 -12 -1 -1 -6 -15 -10 -2 -6 -23 -85
0 0 0 -12 -12 0 0 0 -5 0 0 0 0 0 0 0 0 0 -1 0 0 0 0 0 0 0 0 0 0 0 -1 0 0 -1 0 0 0 0 -136 -37 -1 -1 -21 -9 -6 -3 -21 -143 0
0 0 -1 -18 -10 0 0 0 0 -21 -9 0 0 0 0 0 0 -4 0 0 0 0 0 0 0 0 0 0 0 0 0 0 -2 0 0 0 0 0 -98 -54 -20 0 -16 -36 -40 -100 -173 0 0
0 0 -13 -1 0 -3 -8 -15 0 -30 -11 0 0 0 0 0 0 0 0 0 0 0 0 0 0 0 0 0 0 0 0 0 0 0 0 0 -111 -159 -164 -25 -3 -1 -14 -114 -140 -47 0 0 0
Wind_Speed
4 3 1 1 4 1 1 3 3 10 4 0 10 2 3 6 3 4 4 5 6 14 14 14 13 12 11 13 14 15 16 17 18 17 18 18 17 16 15 14 13 12 12 11 10 9 9 8 8
3 2 2 2 2 3 3 4 11 10 10 14 2 3 3 5 4 2 1 4 8 13 13 14 14 13 12 11 12 13 13 15 16 17 16 17 16 16 15 14 13 13 12 11 10 9 8 8 8
1 3 1 3 2 2 3 6 12 10 8 4 1 5 4 5 6 5 5 7 9 11 12 13 14 13 13 13 11 11 11 12 13 15 15 15 15 15 14 13 13 13 13 11 10 8 6 6 6
0 2 4 0 7 3 1 8 9 8 3 4 1 6 3 3 6 6 5 7 9 11 11 13 14 15 14 14 13 11 11 11 11 12 12 12 13 13 12 12 11 11 12 11 10 8 7 5 5
3 1 3 3 2 1 4 6 8 10 3 5 1 6 5 4 6 4 4 6 10 10 9 11 10 12 14 15 15 14 13 12 12 12 12 12 11 11 11 11 10 10 9 9 9 8 7 6 6
3 0 3 4 3 2 4 5 6 7 6 6 7 4 3 7 6 6 4 5 7 8 8 8 8 8 10 12 14 13 13 14 13 13 13 12 11 11 10 10 10 9 8 7 7 7 7 6 5
3 2 4 4 4 3 4 6 5 5 8 10 4 3 3 9 9 3 4 4 5 6 7 7 8 8 8 8 10 12 12 12 12 13 14 13 12 10 9 9 8 7 7 6 5 6 6 6 5
3 3 5 2 6 5 4 4 3 6 5 6 2 3 3 4 8 3 4 4 3 4 6 7 7 8 7 8 8 9 10 11 11 11 11 12 11 11 11 10 9 8 8 8 6 6 5 5 5
1 2 4 5 4 3 2 4 2 3 5 5 3 1 3 3 4 1 2 1 2 5 7 8 9 9 9 9 8 9 11 11 11 11 11 9 10 12 12 11 8 10 9 8 7 6 5 5 6
1 1 3 1 1 1 3 2 5 4 7 1 4 2 3 4 4 6 5 4 4 5 7 7 9 9 9 7 9 10 9 9 10 11 11 11 11 10 10 9 12 11 10 9 7 6 6 7 5
2 3 5 5 5 2 2 4 3 4 3 8 11 8 10 6 5 4 5 6 9 9 8 7 8 10 11 9 6 5 6 6 7 11 10 10 8 8 8 7 7 9 11 8 9 8 7 6 5
2 1 3 2 3 2 3 2 2 6 8 11 7 6 9 12 11 11 9 8 9 9 9 7 7 8 10 7 7 8 8 8 8 9 11 9 7 8 9 7 9 8 7 9 8 6 7 7 7
1 1 4 3 7 7 3 2 5 10 8 11 14 16 16 14 13 11 10 10 11 11 11 10 8 9 9 10 8 8 9 8 9 10 12 11 10 9 9 9 9 9 8 8 8 7 7 7 7
1 4 7 1 3 1 1 5 1 8 6 14 15 15 14 16 14 13 15 13 14 12 13 13 9 8 9 10 11 9 9 10 9 9 11 14 11 9 9 10 10 9 9 8 8 8 7 7 7
2 3 1 2 4 2 1 6 9 4 6 13 12 11 12 13 14 14 12 12 13 11 12 12 12 10 7 11 11 9 9 10 10 10 12 14 13 11 12 8 10 10 9 10 8 8 7 7 7
1 1 3 5 4 3 4 4 5 5 6 11 11 10 10 12 11 12 11 12 12 12 13 12 11 10 10 8 9 8 8 10 10 10 10 14 14 13 11 11 9 8 9 8 8 8 8 8 7
3 4 1 0 1 3 5 2 4 3 6 9 9 10 10 11 12 12 11 10 11 12 13 13 12 11 11 9 8 9 11 7 10 10 10 13 14 13 10 11 11 8 6 9 9 8 9 8 8
1 1 2 2 1 2 1 3 5 3 5 7 8 10 11 12 14 13 13 11 11 10 11 12 11 11 11 8 7 6 7 10 8 9 11 14 11 14 11 12 12 10 9 6 9 10 9 9 8
3 2 5 5 1 4 2 5 8 5 3 8 10 11 12 13 11 13 13 12 12 12 12 12 13 13 10 7 7 4 6 7 9 10 14 14 12 15 13 11 12 12 11 11 7 10 11 9 7
5 4 3 6 4 4 4 7 7 5 4 6 8 11 13 15 15 14 14 14 13 14 13 13 12 13 10 8 6 6 7 7 9 9 12 15 15 16 14 14 12 13 11 12 11 10 10 9 8
2 2 2 5 4 3 4 3 8 7 4 2 5 7 10 13 17 18 18 16 15 14 14 13 13 13 12 11 8 7 8 9 9 10 11 12 16 17 16 16 14 13 12 12 12 11 14 10 8
2 3 5 6 6 10 3 4 5 11 7 2 6 9 10 12 13 15 17 18 17 15 14 14 13 13 11 12 9 10 9 10 10 10 10 11 15 16 17 18 16 15 12 13 12 8 9 10 9
3 7 4 4 5 4 2 3 3 3 6 2 9 12 14 13 13 15 17 18 17 16 14 13 14 13 14 13 11 9 10 10 9 10 13 12 12 16 17 17 17 16 13 13 13 12 11 11 12
8 3 1 1 2 3 3 5 2 1 2 3 9 13 14 15 14 14 15 17 17 16 15 14 14 14 14 14 13 12 13 14 11 11 12 12 12 11 16 17 15 16 15 14 13 13 16 13 10
8 5 3 2 1 2 1 6 3 2 1 5 10 14 14 14 15 16 19 19 18 18 17 15 15 17 15 15 16 16 14 14 16 14 12 14 12 12 13 16 16 14 16 15 14 14 12 12 11
4 4 1 3 4 6 4 4 3 0 2 6 10 12 16 17 17 16 18 18 20 19 18 16 17 18 17 16 17 16 17 10 12 13 12 12 12 13 13 14 15 17 17 15 14 12 11 10 9
3 3 2 3 1 4 2 2 5 2 3 11 16 16 17 17 16 17 18 18 19 18 18 17 16 17 18 19 16 15 15 16 13 17 14 12 14 13 15 15 16 17 17 16 15 11 11 12 7
3 7 1 3 3 5 3 7 5 4 8 14 17 18 16 17 16 16 17 19 18 17 16 17 17 17 18 20 17 13 17 16 16 14 17 16 15 16 16 17 16 16 16 15 13 10 11 13 8
3 2 4 1 1 2 5 4 2 3 10 13 16 17 19 19 17 17 18 18 18 17 18 19 20 20 21 20 19 17 15 16 15 15 16 16 17 16 17 18 17 17 15 14 12 11 12 13 12
1 1 1 1 1 3 2 8 1 5 9 11 16 17 19 17 17 17 19 19 19 19 18 19 18 16 19 20 20 19 17 17 16 14 16 17 17 17 17 18 17 16 14 10 13 13 12 14 15
Wind_Direction
331 14 109 130 214 258 59 73 279 305 296 216 314 269 79 55 23 26 61 108 143 148 152 148 142 144 140 137 137 135 137 142 145 148 149 151 152 153 155 155 155 155 160 160 153 152 149 158 162
345 158 121 104 217 187 100 317 311 308 304 304 259 227 75 67 35 52 115 115 154 148 151 148 145 146 147 141 135 136 141 144 147 148 151 153 155 156 159 160 160 163 166 167 159 155 160 167 165
142 6 274 84 107 113 95 328 309 317 324 237 155 48 35 9 356 24 42 128 142 148 150 140 142 146 151 149 145 140 144 148 151 150 154 157 159 160 163 164 167 170 172 169 163 157 164 171 166
124 127 101 223 105 117 25 346 333 335 78 46 58 72 99 11 329 359 102 129 136 149 152 139 145 150 154 158 158 157 155 155 156 155 157 160 164 163 165 167 173 176 177 172 167 159 168 180 177
52 100 94 95 108 219 252 300 334 18 48 33 107 85 70 24 352 28 69 121 138 141 152 152 149 154 159 165 169 169 168 167 165 165 165 167 168 170 173 174 182 183 183 178 170 166 172 186 191
90 339 130 132 140 299 289 320 326 24 34 37 74 75 41 344 17 353 49 88 134 144 153 159 156 163 169 173 175 176 177 175 175 171 171 175 176 180 182 184 188 188 192 189 182 175 177 190 206
89 78 105 130 129 106 19 334 15 4 30 31 338 78 19 16 13 29 53 81 131 155 166 176 185 185 184 184 184 183 183 184 184 179 178 178 180 183 187 189 198 199 197 205 199 192 192 201 213
90 89 134 167 148 99 6 341 334 355 34 323 315 103 81 5 2 77 86 85 103 170 193 191 199 201 210 204 196 196 191 193 192 191 189 187 186 186 191 191 202 209 208 216 214 206 207 221 236
141 106 146 142 149 78 336 0 30 324 314 336 15 103 48 19 7 63 49 147 193 203 207 208 206 206 208 209 209 207 213 204 200 201 203 192 209 204 201 207 192 214 220 222 218 218 218 234 242
69 114 123 188 155 84 320 315 323 319 334 331 319 327 26 341 337 338 321 279 248 236 224 223 224 221 218 215 214 212 219 219 213 210 208 213 216 219 223 215 208 219 224 228 223 225 221 222 242
106 105 169 191 223 222 282 266 211 267 333 8 321 328 355 12 1 332 317 302 301 312 302 271 238 220 215 219 218 220 216 218 222 225 219 218 217 220 216 225 218 220 215 233 214 217 229 230 237
165 126 183 197 191 255 238 297 4 33 335 323 315 346 28 40 38 29 17 360 335 319 305 302 280 263 245 237 217 220 208 212 219 220 214 225 221 226 224 222 221 223 224 225 223 223 233 232 230
121 210 258 290 284 252 288 265 115 33 42 60 66 65 59 51 40 30 24 23 15 9 345 318 306 261 253 241 237 234 232 223 223 216 215 217 223 224 227 227 225 224 223 228 228 228 228 232 231
347 265 276 308 307 203 276 94 208 34 28 62 58 52 50 48 36 29 25 13 8 2 359 352 332 292 255 247 247 244 241 233 231 228 223 215 225 217 231 228 226 227 225 227 233 229 235 239 240
336 296 335 79 356 55 167 72 26 45 60 64 63 53 46 38 32 28 14 8 1 357 351 355 352 355 288 261 254 247 244 242 241 237 233 225 219 218 226 228 232 224 226 233 230 235 236 242 241
32 106 161 45 4 43 314 114 47 32 66 61 52 47 40 34 26 16 10 0 357 353 353 347 348 348 353 310 270 252 248 246 243 243 237 228 228 223 228 234 226 225 220 225 231 232 235 243 243
51 101 42 96 39 352 4 113 132 61 68 64 49 39 30 28 26 15 5 360 351 347 343 343 344 344 341 334 304 264 251 238 247 248 243 235 228 221 219 238 236 218 219 223 228 231 236 239 241
115 301 226 267 40 295 179 171 160 110 76 69 49 33 27 16 7 357 354 352 351 343 337 335 336 335 333 322 316 280 259 253 240 241 243 244 235 229 212 232 239 227 226 223 224 228 224 239 243
204 235 262 290 212 272 254 217 182 145 88 55 38 26 18 8 350 351 348 345 345 346 340 339 337 337 332 326 321 307 280 263 253 241 244 240 232 235 228 232 225 228 230 228 209 224 226 228 233
201 232 237 283 276 282 313 281 184 175 90 43 24 15 3 355 355 353 348 345 343 339 339 334 331 330 326 315 308 290 293 287 286 274 246 240 236 230 226 228 227 221 230 231 223 216 228 230 210
188 258 283 291 313 234 297 221 193 186 180 65 26 2 356 352 347 346 347 344 338 335 336 330 327 324 318 314 305 292 280 264 262 254 253 252 244 237 232 229 232 219 219 231 224 221 223 231 216
270 0 275 280 304 317 347 303 219 206 216 244 0 0 358 353 349 344 344 339 335 328 326 326 324 324 318 315 305 301 292 285 277 280 275 258 246 241 233 231 228 229 214 228 223 216 227 229 238
351 323 318 324 286 286 154 255 101 166 224 328 358 357 356 353 345 343 341 336 327 326 325 324 323 320 320 310 299 295 290 284 281 273 268 265 256 240 237 229 228 228 226 221 223 213 197 222 229
311 259 291 117 208 236 83 328 54 149 103 346 350 345 343 342 337 337 335 333 331 328 326 322 323 319 320 310 292 287 284 286 284 279 272 258 257 241 233 232 227 225 229 220 216 211 213 211 223
5 354 327 249 247 356 106 291 342 285 180 356 330 329 335 335 333 334 335 336 334 329 329 323 324 320 320 312 301 296 287 281 278 273 266 261 250 249 234 223 220 218 219 218 215 206 212 220 215
18 359 92 296 318 321 298 229 105 342 193 329 323 330 329 336 337 328 330 331 331 326 328 323 322 319 319 314 300 300 289 280 275 271 265 260 256 248 246 232 222 222 219 218 214 215 204 206 214
114 73 50 115 97 263 302 246 254 191 253 333 341 331 330 331 331 325 326 330 329 324 322 321 319 310 312 312 302 293 292 286 276 277 271 260 251 252 249 238 228 220 219 216 212 210 195 187 172
40 137 158 49 335 296 282 299 265 353 344 340 335 331 328 330 330 326 326 331 328 325 320 317 316 311 313 307 301 295 293 291 284 276 267 259 254 246 240 239 233 222 214 211 205 203 185 169 153
168 134 80 141 202 300 307 297 202 251 346 330 326 333 332 327 332 328 328 331 330 325 327 323 319 316 314 310 306 301 292 288 286 279 266 259 256 243 236 231 227 224 209 197 189 179 170 159 136
242 152 92 200 154 225 290 275 233 244 323 327 330 329 328 323 327 328 331 334 331 329 325 320 313 316 312 306 305 301 296 289 279 273 267 261 256 243 236 230 219 210 203 167 175 164 160 155 148